Zurück zum Katalog

STARLINK-37778

AktivKommunikationSSO
NORAD 69352·PAYLOAD·🇺🇸 United States

Gestartet Jun 3, 2026 von Vandenberg Space Force Base

Loading…

Nächste Überflüge (nächste 24 Stunden)

TLE

AktuellSource: CelesTrak SupGP

Epoche: Sep 14, 2026, 21:12 UTC

1 69352C 26122Z   26257.88381944  .00009951  00000+0  30895-3 0  2573
2 69352  97.2828 286.6531 0001551  89.1139 253.3931 15.33429566    18

Verfolge STARLINK-37778 in Echtzeit mit AllMySat

Download on the App Store